CST,Max TemperatureF,Mean TemperatureF,Min TemperatureF,Max Dew PointF,MeanDew PointF,Min DewpointF,Max Humidity, Mean Humidity, Min Humidity, Max Sea Level PressureIn, Mean Sea Level PressureIn, Min Sea Level PressureIn, Max VisibilityMiles, Mean VisibilityMiles, Min VisibilityMiles, Max Wind SpeedMPH, Mean Wind SpeedMPH, Max Gust SpeedMPH,PrecipitationIn, CloudCover, Events, WindDirDegrees
2012-1-1,53,44,35,34,27,21,75,54,28,30.60,30.48,30.23,10,10,10,20,11,29,0.00,0,,322
2012-1-2,46,38,30,28,19,10,81,52,27,30.77,30.68,30.59,10,10,10,14,7,18,0.00,0,,349
2012-1-3,59,44,28,28,22,18,69,47,29,30.54,30.35,30.16,10,10,10,21,8,26,0.00,0,,175
2012-1-4,60,48,35,32,30,28,81,54,29,30.35,30.26,30.13,10,10,10,16,6,21,0.00,0,,332
2012-1-5,66,50,33,32,29,27,81,53,26,30.33,30.21,30.07,10,10,10,17,5,22,0.00,0,,216
2012-1-6,69,54,39,41,34,32,76,50,27,29.99,29.89,29.80,10,10,10,15,9,18,0.00,0,,198
2012-1-7,59,48,37,34,27,25,66,47,27,30.12,30.05,29.97,10,10,10,16,10,22,0.00,1,,28
2012-1-8,51,46,42,32,30,28,57,49,43,30.22,30.14,30.09,10,10,10,12,7,16,0.00,7,,23
2012-1-9,53,42,32,30,28,25,87,63,35,30.26,30.22,30.13,10,10,10,13,8,17,0.00,0,,13
2012-1-10,50,46,41,37,32,28,81,65,54,30.12,29.98,29.82,10,10,7,10,5,,0.00,6,Rain-Thunderstorm,4
2012-1-11,60,46,32,36,32,28,93,66,34,29.86,29.74,29.67,10,10,10,28,4,34,0.00,1,,336
2012-1-12,35,30,24,25,10,-4,80,46,18,30.19,30.15,30.08,10,10,10,26,17,34,0.00,0,,318
2012-1-13,53,37,21,23,13,5,63,43,29,30.24,30.18,30.13,10,10,10,12,3,16,0.00,0,,237
2012-1-14,37,35,33,25,23,21,65,62,56,30.20,30.14,30.12,10,10,10,8,5,,0.00,0,,231
2012-1-15,62,58,53,46,35,27,72,46,27,30.15,30.01,29.94,10,10,10,23,16,31,0.00,0,,180
2012-1-16,73,63,53,55,51,48,88,72,46,29.93,29.87,29.75,10,10,10,26,19,39,0.00,1,,202
2012-1-17,62,45,28,54,23,14,72,55,33,30.36,30.19,29.78,10,10,10,24,18,34,0.00,0,,343
2012-1-18,46,32,19,21,18,16,86,58,32,30.38,30.25,30.05,10,10,10,15,4,21,0.00,0,,200
2012-1-19,59,47,35,32,30,27,81,61,36,29.95,29.87,29.79,10,10,10,13,8,16,0.00,0,,114
2012-1-20,53,42,32,37,31,28,100,77,44,29.95,29.79,29.70,10,8,0,15,5,22,0.00,2,Fog,18
2012-1-21,42,32,21,27,18,12,68,56,39,30.16,30.05,29.85,10,10,10,15,10,24,0.00,0,,40
2012-1-22,71,56,42,48,40,23,100,65,17,29.78,29.60,29.44,10,6,2,34,20,47,0.00,3,,203
2012-1-23,59,47,35,34,27,21,87,52,23,30.12,30.04,29.93,10,10,10,13,6,16,0.00,0,,259
2012-1-24,66,52,37,45,30,23,87,49,24,30.11,30.06,29.99,10,10,5,20,8,26,0.29,2,Rain-Thunderstorm,128
2012-1-25,51,46,42,46,44,43,100,94,82,30.10,30.01,29.90,10,9,4,18,9,28,0.35,7,Rain,30
2012-1-26,59,48,37,41,36,32,100,69,36,30.01,29.95,29.89,10,8,2,21,8,28,0.00,3,,340
2012-1-27,62,50,37,41,33,28,87,59,29,30.15,29.93,29.79,10,10,10,25,9,36,0.00,0,,202
2012-1-28,50,41,32,30,24,16,87,58,30,30.52,30.42,30.29,10,10,10,13,6,,0.00,0,,324
2012-1-29,59,46,32,32,28,21,80,55,33,30.41,30.32,30.22,10,10,10,16,8,22,0.00,0,,204
2012-1-30,66,54,41,45,36,28,70,57,40,30.21,30.11,29.99,10,10,10,22,11,32,0.00,0,,194
2012-1-31,69,62,55,54,51,43,88,68,43,30.00,29.97,29.94,10,10,10,25,17,32,0.00,4,,217